CW9809 Weather Reports


Display with metric or nautical units.
time (UTC)temp
F
wind
direction
speed
MPH
gust
MPH
rain 1hr
in
rain 24hr
in
rain mn
in
humidity
%
barometer
mb
20260831093016 63 15 0.0 0.0 0.00 0.02 0.00 91 1020.3
20260831091508 63 15 0.0 0.0 0.00 0.02 0.00 91 1020.4
20260831090011 63 15 0.0 0.0 0.00 0.02 0.00 91 1020.3
20260831084512 63 15 0.0 0.0 0.00 0.02 0.00 91 1020.2
20260831083010 63 15 0.0 0.0 0.00 0.02 0.00 90 1020.2
20260831081509 64 15 0.0 0.0 0.00 0.02 0.00 90 1020.2
20260831080008 63 15 0.0 0.0 0.00 0.02 0.00 90 1020.1
20260831074510 64 15 0.0 0.0 0.00 0.02 0.00 90 1020.2
20260831073013 64 15 0.0 0.0 0.00 0.02 0.00 89 1020.2
20260831071528 65 15 0.0 0.0 0.00 0.02 0.00 88 1020.2
20260831070010 65 14 0.0 0.0 0.00 0.02 0.00 88 1020.2
20260831064515 65 15 0.0 0.0 0.00 0.02 0.00 88 1020.2
20260831063014 65 15 0.0 0.0 0.00 0.02 0.00 88 1020.0
20260831061513 65 15 0.0 0.0 0.00 0.02 0.00 88 1019.6
20260831060017 65 14 0.0 0.0 0.00 0.02 0.00 88 1019.9
20260831054514 66 15 0.0 0.0 0.00 0.02 0.00 88 1019.9
20260831053016 66 29 0.0 0.0 0.00 0.02 0.00 87 1019.7
20260831051520 66 22 0.0 0.0 0.00 0.02 0.00 87 1019.7
20260831050017 67 40 0.0 0.0 0.00 0.02 0.00 87 1019.7
20260831044526 67 9 0.0 0.0 0.00 0.02 0.00 87 1019.8
20260831043014 67 45 0.0 0.0 0.00 0.02 0.00 88 1019.9
20260831041531 67 13 0.0 0.0 0.00 0.02 0.00 88 1019.8
20260831040024 68 13 0.0 0.0 0.00 0.02 0.00 89 1019.8
20260831034523 68 10 0.0 0.0 0.00 0.02 0.02 89 1019.8
20260831033024 69 303 0.0 0.0 0.00 0.02 0.02 91 1019.9
20260831031531 70 333 0.0 0.0 0.01 0.02 0.02 92 1020.0
20260831030024 70 29 0.0 0.0 0.02 0.02 0.02 91 1019.8
20260831024526 70 42 0.0 0.0 0.02 0.02 0.02 91 1019.9
20260831023023 71 15 0.0 0.0 0.02 0.02 0.02 91 1019.9
20260831021526 71 325 0.0 0.0 0.01 0.01 0.01 91 1019.9
20260831020027 71 55 0.0 0.0 0.00 0.00 0.00 90 1019.6
20260831014526 71 84 0.0 0.0 0.00 0.00 0.00 90 1019.5
20260831013027 71 186 0.0 0.0 0.00 0.00 0.00 89 1019.3
20260831011527 71 218 0.0 0.0 0.00 0.00 0.00 90 1019.2
20260831010046 71 172 0.0 0.0 0.00 0.00 0.00 90 1019.1
20260831004528 71 173 0.0 0.0 0.00 0.00 0.00 90 1019.2
20260831003033 71 187 0.0 0.0 0.00 0.00 0.00 90 1019.0
20260831001531 71 187 0.0 0.0 0.00 0.00 0.00 89 1018.9
20260831000031 71 188 0.0 0.0 0.00 0.00 0.00 88 1019.0
20260830234530 71 188 0.0 0.0 0.00 0.00 0.00 88 1019.0
20260830233036 72 188 0.0 0.0 0.00 0.00 0.00 87 1018.8
20260830231530 72 188 0.0 0.0 0.00 0.00 0.00 86 1018.9
20260830230031 72 188 0.0 0.0 0.00 0.00 0.00 86 1018.9
20260830224529 72 188 0.0 0.0 0.00 0.00 0.00 85 1019.1
20260830223031 72 188 0.0 0.0 0.00 0.00 0.00 85 1018.9
20260830221528 73 246 0.0 0.0 0.00 0.00 0.00 84 1019.1
20260830220032 73 193 0.0 0.0 0.00 0.00 0.00 83 1018.9
20260830214530 73 122 0.0 0.0 0.00 0.00 0.00 82 1018.8
20260830213048 73 132 0.0 0.0 0.00 0.00 0.00 82 1018.9
20260830211534 73 184 0.0 0.0 0.00 0.00 0.00 82 1019.0
20260830210027 74 321 0.0 0.0 0.00 0.00 0.00 79 1019.0
20260830204539 74 166 0.0 0.0 0.00 0.00 0.00 79 1019.1
20260830203013 74 213 0.0 0.0 0.00 0.00 0.00 78 1019.4
20260830201515 74 173 0.0 0.0 0.00 0.00 0.00 77 1019.3
20260830200020 75 138 0.0 0.0 0.00 0.00 0.00 75 1019.3
20260830194531 75 211 0.0 0.0 0.00 0.00 0.00 75 1019.5
20260830193035 75 113 0.0 0.0 0.00 0.00 0.00 73 1019.8
20260830191525 75 150 0.0 0.0 0.00 0.00 0.00 72 1019.9
20260830190018 75 132 0.0 0.0 0.00 0.00 0.00 73 1020.2
20260830184535 75 209 0.0 0.0 0.00 0.00 0.00 71 1020.5
20260830183028 75 330 0.0 0.0 0.00 0.00 0.00 72 1020.7
20260830181531 77 43 0.0 0.0 0.00 0.00 0.00 67 1020.7
20260830180017 77 187 0.0 0.0 0.00 0.00 0.00 66 1020.7
20260830174519 76 134 0.0 0.0 0.00 0.00 0.00 68 1020.8
20260830173026 76 199 0.0 0.0 0.00 0.00 0.00 66 1020.8
20260830171530 75 150 0.0 0.0 0.00 0.00 0.00 66 1020.9
20260830170008 77 183 0.0 0.0 0.00 0.00 0.00 63 1021.0
20260830164516 77 184 0.0 0.0 0.00 0.00 0.00 64 1021.1
20260830163025 75 219 0.0 0.0 0.00 0.00 0.00 65 1021.2
20260830161527 76 229 0.0 0.0 0.00 0.00 0.00 63 1021.5
20260830160031 76 10 0.0 0.0 0.00 0.00 0.00 62 1021.6
20260830154510 75 33 0.0 0.0 0.00 0.00 0.00 67 1021.9
20260830153014 74 207 0.0 0.0 0.00 0.00 0.00 67 1021.9
20260830151522 74 210 0.0 0.0 0.00 0.00 0.00 68 1022.4
20260830144534 72 183 0.0 0.0 0.00 0.00 0.00 70 1022.5
20260830143039 71 223 0.0 0.0 0.00 0.00 0.00 70 1022.6
20260830141536 71 217 0.0 0.0 0.00 0.00 0.00 69 1022.6
20260830140027 70 332 0.0 0.0 0.00 0.00 0.00 70 1022.7
20260830134539 69 331 0.0 0.0 0.00 0.00 0.00 71 1022.7
20260830133031 68 195 0.0 0.0 0.00 0.00 0.00 75 1022.8
20260830131534 66 352 0.0 0.0 0.00 0.00 0.00 78 1023.0
20260830130036 65 352 0.0 0.0 0.00 0.00 0.00 81 1023.2
20260830124528 64 352 0.0 0.0 0.00 0.00 0.00 86 1023.3
20260830123032 62 352 0.0 0.0 0.00 0.00 0.00 88 1023.4
20260830121541 61 352 0.0 0.0 0.00 0.00 0.00 89 1023.4
20260830120022 60 352 0.0 0.0 0.00 0.00 0.00 89 1023.4
20260830114524 60 352 0.0 0.0 0.00 0.00 0.00 89 1023.6
20260830113029 60 352 0.0 0.0 0.00 0.00 0.00 89 1023.5
20260830111509 59 352 0.0 0.0 0.00 0.00 0.00 89 1023.4
20260830110012 59 352 0.0 0.0 0.00 0.00 0.00 89 1023.4
20260830104521 59 352 0.0 0.0 0.00 0.00 0.00 89 1023.3
20260830103028 59 352 0.0 0.0 0.00 0.00 0.00 88 1023.2
20260830101541 59 352 0.0 0.0 0.00 0.00 0.00 88 1023.4
20260830100012 59 352 0.0 0.0 0.00 0.00 0.00 88 1023.1
20260830094519 59 352 0.0 0.0 0.00 0.00 0.00 88 1023.4